Home > Weather > Warren > Past weeks

Flag for USA Past Weather in Warren, Michigan, USA — Yesterday and Last 2 Weeks

Now
74 °F

Sunny.


Feels Like: 77 °F
Forecast: 65 / 75 °F
Wind: 14 mph from Northwest

Location: Detroit City Airport

Current Time: Jul 1, 2016 at 3:00:49 PM

Latest Report: Jul 1, 2016 at 1:53 PM


Visibility: 10 mi

Pressure: 29.93 "Hg

Humidity: 48%

Dew Point: 53 °F

Location of WarrenLocation

Past Weather in Warren — Graph

°F

Warren Temperature Yesterday

Maximum temperature yesterday: 82 °F (at 3:53 PM)
Minimum temperature yesterday: 60 °F (at 4:53 AM)
Average temperature yesterday: 72 °F

High & Low Weather Summary for the Past Weeks

 TemperatureHumidityPressure
High92 °F (Jun 27, 2:53 PM)96% (Jun 16, 6:02 PM)30.28 "Hg (Jun 16, 6:02 PM)
Low54 °F (Jun 29, 5:53 AM)20% (Jun 29, 6:53 PM)29.66 "Hg (Jun 16, 1:53 PM)
Average74 °F52%30.00 "Hg
* Reported Jun 16 1:53 PM — Jul 1 1:53 PM, Warren, Weather by CustomWeather, © 2016

Note: Actual official high and low records may vary slightly from our data, if they occured in-between our weather recording intervals... More about our weather records

Advertising

Warren Weather History for the Previous 24 Hours

Scroll right to see more
 ConditionsComfort  
Time TempWeatherWind HumidityBarometerVisibility
1:53 PM
Fri, Jul 1
74 °FSunny.14 mph48%29.93 "Hg10 mi
12:53 PM71 °FCloudy.16 mph57%29.92 "Hg10 mi
11:53 AM70 °FBroken clouds.8 mph61%29.90 "Hg10 mi
10:53 AM68 °FMore clouds than sun.9 mph68%29.89 "Hg10 mi
9:53 AM67 °FCloudy.8 mph76%29.88 "Hg10 mi
8:53 AM64 °FMostly cloudy.6 mph87%29.87 "Hg10 mi
7:53 AM62 °FOvercast.5 mph90%29.87 "Hg10 mi
7:00 AM62 °FRain. Fog.No wind90%29.88 "Hg2 mi
5:53 AM63 °FLight rain. Overcast.No wind87%29.84 "Hg10 mi
4:53 AM65 °FLight rain. Mostly cloudy.5 mph76%29.86 "Hg10 mi
3:53 AM70 °FMostly cloudy.9 mph53%29.86 "Hg10 mi
2:53 AM70 °FPartly cloudy.3 mph61%29.87 "Hg10 mi
1:53 AM70 °FPassing clouds.3 mph61%29.88 "Hg10 mi
12:53 AM70 °FClear.5 mph61%29.91 "Hg10 mi
11:53 PM
Thu, Jun 30
69 °FClear.3 mph61%29.92 "Hg10 mi
10:53 PM71 °FClear.6 mph55%29.93 "Hg10 mi
9:53 PM73 °FSunny.7 mph44%29.93 "Hg10 mi
8:53 PM76 °FSunny.9 mph36%29.94 "Hg10 mi
7:53 PM78 °FSunny.12 mph32%29.93 "Hg10 mi
6:53 PM80 °FPassing clouds.14 mph30%29.93 "Hg10 mi
5:53 PM81 °FSunny.14 mph30%29.93 "Hg10 mi
4:53 PM81 °FSunny.6 mph26%29.94 "Hg10 mi
3:53 PM82 °FSunny.13 mph27%29.95 "Hg10 mi
Weather by CustomWeather, © 2016

See weather overviewHow to use our weather pages